STARLINK-11267, 60994

Orbit data source: Space-Track

STARLINK-11267, 60994 is a payload satellite owned by SpaceX/Seattle (US) in LEO that was launched on Thu, 05 Sep 2024 UTC via an FALCON 9 launch vehicle from the Air Force Eastern Test Range (AFETR). Payload-class satellites include a variety of spacecraft equipped with specific instruments for various scientific and technological missions. These include communications satellites like Starlink; space stations such as the ISS; scientific satellites like the Hubble; Earth observation satellites from companies like Planet Labs, Umbra, and HawkEye 360; GPS; miniature CubeSats for education and research; and military/defense satellites.

Loading next visibility...
Identifier
60994, 2024-158E
Orbit
LEO
Country
Flag of USUS
Related business
Manufacturer
SpaceX/Seattle
Mission
Operational Commercial Communications
Bus & Motor
STARLINK V2MD, Unknown motor
Mass
960 kg wet, ~910 kg dry
Launch date (UTC)
2024-09-05 (1 year ago)
Launch vehicle
FALCON 9
Launch site
Air Force Eastern Test Range (AFETR)
Object type
Payload
Rocket body
Debris
Shape & HBR
Box + 2 Pan, 14.5 m
Radar Cross Section
36.964 m², Large (>1 m²)

Expand to show TLE details & history
Last TLE update: 1 day ago

TLE from 1 day ago
0 STARLINK-11267
1 60994U 24158E   25259.70098787 -.00001094  00000-0 -41785-5 0  9993
2 60994  53.1589  59.2700 0000931  93.0753 267.0371 15.69697651 60269
Epoch: 2025-09-16T16:49Z
TLE epoch observation values (Epoch: 2025-09-16T16:49:25.351Z)
Latitude
-0.00008°
Longitude
171.02679°
Altitude
360.71 km
Speed
7.694 km/s
True Right ascension
03h 57m 04s
True Declination
0° 00' 00"
Sunlit
Object was in full shadow at epoch
Visualization orbit readout
Latitude
Unknown
Longitude
Unknown
Altitude
Unknown
Speed
Unknown
Apparent Right ascension
Unknown
Apparent Declination
Unknown
Sunlit
N/A
Visualization observer readout
Local Sidereal Time
14:36:44
Azimuth
Unknown
Elevation
Unknown
Doppler factor
Unknown
Orbital elements
Apogee altitude
360.65 km
Perigee altitude
359.396 km
Semi-major axis
6,738.16 km
Eccentricity
0.00009
Inclination
53.1589°
RAAN
59.27°
Arg. of periapsis
93.0753°
True anomaly
267.02645°
Mean anomaly
267.0371°
Eccentric anomaly
267.03177°
Mean motion
3.92402 °/min
Orbital period
91.74 mins
BSTAR
-0.0000041785
Loading maneuver chart data...
Computing Atmospheric mass density...
Loading historical data...
Loading historical data...
Loading historical data...
Loading historical data...
Loading historical data...
Loading historical data...
Loading historical data...

Documentation

Showing up to 5 results
|